Regional Weather Roundup
Issued by NWS

Home | Current Version | Previous Version | Graphics & Text | Print | Product List | Glossary Off
Versions: 1 2 3 4 5 6 7 8 9 10 11 12 13 14 15 16 17 18 19 20 21 22 23 24 25 26 27 28 29 30 31 32 33 34 35 36 37 38 39 40 41 42 43 44 45 46 47 48 49 50

000
ASUS43 KLMK 281210
RWRKY
KENTUCKY REGIONAL WEATHER ROUNDUP
NATIONAL WEATHER SERVICE LOUISVILLE KY
800 AM EDT SAT MAR 28 2015

NOTE "FAIR" INDICATES FEW OR NO CLOUDS BELOW 12,000 FEET
WITH NO SIGNIFICANT WEATHER AND/OR OBSTRUCTIONS TO VISIBILITY.

KYZ001>023-026-027-061>063-070>075-281300-
WESTERN AND SOUTH CENTRAL KENTUCKY

CITY           SKY/WX    TMP DP  RH WIND       PRES   REMARKS
PADUCAH        CLEAR     24  21  88 CALM      30.24R
HENDERSON      PTCLDY    27  18  69 NE8       30.25R WCI  18
OWENSBORO      CLEAR     25  15  65 N7        30.25R WCI  17
HOPKINSVILLE   CLEAR     26  19  76 N1        30.22R
BOWLING GREEN  CLEAR     26  17  68 CALM      30.23R
GLASGOW        CLEAR     24  10  56 N6        30.21R WCI  17
$$

KYZ024-025-028>034-038-045-046-053-281300-
NORTH CENTRAL KENTUCKY

CITY           SKY/WX    TMP DP  RH WIND       PRES   REMARKS
LOUISVILLE/SDF PTCLDY    23  14  68 N9        30.24R WCI  13
LOUISVILLE/LOU CLEAR     23  14  68 N7        30.24R WCI  15
FORT KNOX      PTCLDY    20  12  70 N6        30.18S WCI  12
$$

KYZ035>037-039>044-047>052-055>060-089>105-281300-
NORTHEAST KENTUCKY

CITY           SKY/WX    TMP DP  RH WIND       PRES   REMARKS
LEXINGTON      CLEAR     20  13  74 N5        30.19R WCI  13
COVINGTON      CLEAR     20  14  77 N7        30.20R WCI  11
FRANKFORT      CLEAR     21  12  68 N3        30.19R
$$

KYZ054-064>069-076>088-106>120-281300-
SOUTHEAST KENTUCKY

CITY           SKY/WX    TMP DP  RH WIND       PRES   REMARKS
JACKSON        LGT SNOW  24  16  71 VRB3      30.13R
LONDON         CLOUDY    27  13  55 N6        30.15R WCI  20
SOMERSET       PTCLDY    25  14  63 N7        30.20R WCI  17
MIDDLESBORO    CLOUDY    28  14  55 N5        30.14R WCI  23
MONTICELLO     SUNNY     25  16  68 N6        30.20R WCI  18
$$



USA.gov is the U.S. government's official web portal to all federal, state and local government web resources and services.